Home > Weather > Wedel > Past weeks

Flag for Germany Past Weather in Wedel, Schleswig-Holstein, Germany — Yesterday and Last 2 Weeks

Now
79 °F

Sunny.


Feels Like: 79 °F
Forecast: 60 / 81 °F
Wind: 3 mph from North

Location: Hamburg-Fuhlsbuettel

Current Time: Jul 23, 2016 at 5:14:14 PM

Latest Report: Jul 23, 2016 at 4:20 PM


Visibility: 10 mi

Pressure: 30.09 "Hg

Humidity: 45%

Dew Point: 55 °F

Location of WedelLocation

Past Weather in Wedel — Graph

°F

Wedel Temperature Yesterday

Maximum temperature yesterday: 82 °F (at 4:20 PM)
Minimum temperature yesterday: 63 °F (at 11:50 PM)
Average temperature yesterday: 70 °F

High & Low Weather Summary for the Past Weeks

 TemperatureHumidityPressure
High84 °F (Jul 21, 3:50 PM)100% (Jul 10, 12:50 AM)30.21 "Hg (Jul 10, 12:50 AM)
Low52 °F (Jul 14, 3:20 AM)42% (Jul 23, 2:20 PM)29.68 "Hg (Jul 10, 11:20 PM)
Average65 °F78%29.99 "Hg
* Reported Jul 8 3:20 PM — Jul 23 3:50 PM, Wedel, Weather by CustomWeather, © 2016

Note: Actual official high and low records may vary slightly from our data, if they occured in-between our weather recording intervals... More about our weather records

Advertising

Wedel Weather History for the Previous 24 Hours

Scroll right to see more
 ConditionsComfort  
Time TempWeatherWind HumidityBarometerVisibility
3:50 PM
Sat, Jul 23
79 °FPassing clouds.6 mph48%30.09 "HgN/A
3:20 PM77 °FPassing clouds.6 mph44%30.09 "HgN/A
2:50 PM77 °FPassing clouds.6 mph44%30.09 "HgN/A
2:20 PM77 °FPassing clouds.7 mph42%30.09 "HgN/A
1:50 PM77 °FPassing clouds.7 mph47%30.09 "HgN/A
1:20 PM77 °FSunny.10 mph47%30.09 "Hg10 mi
12:50 PM77 °FPassing clouds.6 mph51%30.09 "HgN/A
12:20 PM77 °FPassing clouds.7 mph47%30.09 "HgN/A
11:50 AM77 °FPassing clouds.8 mph47%30.09 "HgN/A
11:20 AM75 °FPassing clouds.8 mph50%30.09 "HgN/A
10:50 AM75 °FPassing clouds.7 mph54%30.09 "HgN/A
10:20 AM73 °FPassing clouds.8 mph61%30.07 "HgN/A
9:50 AM72 °FPassing clouds.7 mph65%30.07 "HgN/A
9:20 AM70 °FPassing clouds.6 mph69%30.07 "HgN/A
8:50 AM68 °FSunny.6 mph73%30.07 "Hg10 mi
8:20 AM66 °FSunny.6 mph78%30.07 "Hg10 mi
7:50 AM64 °FPassing clouds.6 mph83%30.07 "HgN/A
7:20 AM64 °FPassing clouds.5 mph78%30.07 "HgN/A
6:50 AM63 °FSunny.5 mph88%30.07 "Hg10 mi
6:20 AM63 °FClear.5 mph88%30.07 "Hg10 mi
5:50 AM61 °FClear.2 mph88%30.07 "Hg10 mi
5:20 AM61 °FClear.2 mph94%30.07 "Hg10 mi
4:50 AM61 °FClear.5 mph88%30.07 "Hg10 mi
4:20 AM61 °FClear.5 mph94%30.07 "Hg10 mi
3:50 AM63 °FClear.2 mph94%30.07 "Hg10 mi
3:20 AM63 °FClear.2 mph94%30.07 "Hg10 mi
2:50 AM64 °FClear.2 mph88%30.07 "Hg10 mi
2:20 AM63 °FClear.2 mph94%30.07 "Hg10 mi
1:50 AM64 °FClear.1 mph94%30.07 "Hg10 mi
1:20 AM63 °FPassing clouds.3 mph100%30.07 "HgN/A
12:50 AM64 °FClear.5 mph94%30.07 "Hg10 mi
12:20 AM64 °FClear.5 mph94%30.07 "Hg10 mi
11:50 PM
Fri, Jul 22
63 °FClear.2 mph100%30.07 "Hg10 mi
11:20 PM64 °FClear.1 mph94%30.07 "Hg10 mi
10:50 PM64 °FClear.3 mph94%30.07 "Hg10 mi
10:20 PM64 °FClear.6 mph94%30.07 "HgN/A
9:50 PM66 °FSunny.3 mph94%30.04 "Hg10 mi
9:20 PM68 °FSunny.5 mph94%30.04 "Hg10 mi
8:50 PM68 °FSunny.2 mph88%30.04 "Hg10 mi
8:20 PM68 °FPassing clouds.3 mph94%30.04 "HgN/A
7:50 PM68 °FSunny.6 mph88%30.04 "Hg10 mi
7:20 PM68 °FSprinkles. Partly sunny.6 mph94%30.04 "HgN/A
6:50 PM70 °FSprinkles. Partly sunny.6 mph88%30.04 "HgN/A
6:20 PM68 °FSprinkles. Partly sunny.2 mph94%30.01 "HgN/A
5:50 PM66 °FRain showers. Broken clouds.8 mph83%30.01 "HgN/A
5:20 PM68 °FStrong thunderstorms. Partly sunny.8 mph83%30.04 "Hg1 mi
Weather by CustomWeather, © 2016

See weather overviewHow to use our weather pages